Regional Weather Roundup
Issued by NWS

Home | Current Version | Previous Version | Text Only | Print | Product List | Glossary Off
Versions: 1 2 3 4 5 6 7 8 9 10 11 12 13 14 15 16 17 18 19 20 21 22 23 24 25 26 27 28 29 30 31 32 33 34 35 36 37 38 39 40 41 42 43 44 45 46 47 48 49 50

000
ASUS43 KMKX 311111
RWRWI

WISCONSIN REGIONAL WEATHER ROUNDUP
NATIONAL WEATHER SERVICE MILWAUKEE/SULLIVAN WI
500 AM CST SAT JAN 31 2015

NOTE: "FAIR" INDICATES FEW OR NO CLOUDS BELOW 12,000 FEET WITH NO
SIGNIFICANT WEATHER AND/OR OBSTRUCTIONS TO VISIBILITY.

WIZ001-002-006>008-014>016-023>028-311200-
NORTHWEST WISCONSIN

CITY           SKY/WX    TMP DP  RH WIND       PRES   REMARKS
SUPERIOR ARPT  CLOUDY    21  15  76 CALM      30.16R
ASHLAND        CLOUDY    22  15  75 W5        30.13R WCI  16
HAYWARD        CLOUDY    21  14  74 CALM      30.11R
SIREN          CLOUDY    23  19  83 CALM      30.14R
CUMBERLAND     CLOUDY    21  14  73 CALM      30.11R
RICE LAKE      CLOUDY    19  13  76 CALM      30.13S
CHETEK         CLOUDY    19  13  75 CALM      30.12S
LADYSMITH      CLOUDY    20  13  73 CALM      30.12S
EAU CLAIRE     CLOUDY    22  13  68 CALM      30.12S
MENOMONIE      CLOUDY    24  17  76 CALM      30.12F
NEW RICHMOND   CLOUDY    26  21  83 CALM      30.12R
OSCEOLA        CLOUDY    26  22  85 CALM      30.15S
$$

WIZ003>005-009-010-017-018-311200-
NORTH CENTRAL WISCONSIN

CITY           SKY/WX    TMP DP  RH WIND       PRES   REMARKS
MANITOWISH WTR CLOUDY    17  14  88 W5        30.05F WCI  10
ARBOR VITAE    CLOUDY    19  14  80 CALM      30.06S
WOODRUFF       CLOUDY    19  14  80 CALM      30.06S
RHINELANDER    CLOUDY    17   9  70 SW6       30.07S WCI   9
EAGLE RIVER    CLOUDY    17  10  76 W5        30.05F WCI  10
LAND O LAKES   CLOUDY    17  11  77 CALM      30.06R
PHILLIPS       CLOUDY    19  13  79 SW5       30.08S WCI  12
TOMAHAWK       CLOUDY    19  11  73 CALM      30.08F
MEDFORD        CLOUDY    19  11  73 W3        30.09S
MERRILL        CLOUDY    19  11  70 SW3       30.09F
$$

WIZ029-030-035-036-043>047-311200-
CENTRAL WISCONSIN

CITY           SKY/WX    TMP DP  RH WIND       PRES   REMARKS
WAUSAU         CLOUDY    19  10  68 SW6       30.09F WCI  11
MOSINEE        CLOUDY    19  12  73 S3        30.12S
MARSHFIELD     CLOUDY    19  11  70 SW5       30.10F WCI  12
STEVENS POINT  CLOUDY    18  12  75 CALM      30.13S
WAUPACA        CLOUDY    21  13  71 S3        30.15F
WAUTOMA        CLOUDY    18  13  80 CALM      30.16F
WISC RAPIDS    CLOUDY    20  11  68 S3        30.14F
CAMP DOUGLAS   CLOUDY    25  17  70 SW7       30.13F WCI  17
$$

WIZ011>013-019>022-031-037>040-048>050-311200-
NORTHEAST WISCONSIN

CITY           SKY/WX    TMP DP  RH WIND       PRES   REMARKS
ANTIGO         CLOUDY    17  10  74 SW3       30.08F
SHAWANO        CLOUDY    22  13  66 SW5       30.14F WCI  16
OCONTO         CLOUDY    21  13  71 MISG      30.14F
STURGEON BAY   CLOUDY    21  12  68 SW7       30.15F WCI  13
GREEN BAY      CLOUDY    21  14  74 SW8       30.15F WCI  11
MANITOWOC      CLOUDY    23  16  74 SW9       30.17  WCI  13
APPLETON       NOT AVBL
CLINTONVILLE   CLOUDY    21  12  68 SW5       30.14F WCI  15
OSHKOSH        CLOUDY    21  15  78 S6        30.16F WCI  13
$$

WIZ032>034-041-042-053>061-311200-
SOUTHWEST WISCONSIN

CITY           SKY/WX    TMP DP  RH WIND       PRES   REMARKS
LA CROSSE      CLOUDY    24  15  68 S5        30.16F WCI  18
SPARTA         CLOUDY    25  15  65 CALM      30.15S
VIROQUA        CLEAR     19  14  79 S6        30.12F WCI  11
BOSCOBEL       CLEAR     16  11  80 CALM      30.19S
PRAIRIE DU CHI CLEAR     22  14  72 CALM      30.18S
PLATTEVILLE    CLEAR     20  16  84 S6        30.17S WCI  12
$$

WIZ056-057-062-063-064-067-068-311200-
SOUTH CENTRAL WISCONSIN

CITY           SKY/WX    TMP DP  RH WIND       PRES   REMARKS
REEDSBURG      CLEAR     20  14  76 CALM      30.14F
BARABOO/DELLS  CLEAR     22  14  72 SW5       30.14F WCI  16
LONE ROCK      CLEAR     16  11  80 CALM      30.18S
MINERAL POINT  CLEAR     23  18  80 S5        30.15S WCI  17
MADISON        CLOUDY    24  17  74 S5        30.17F WCI  18
MIDDLETON      MOCLDY    26  16  65 SW7       30.17S WCI  18
WATERTOWN      CLOUDY    21  17  85 S5        30.17F WCI  15
MONROE         CLEAR     23  19  86 SW12      30.16F WCI  12
JANESVILLE     CLOUDY    27  19  74 SW8       30.20F WCI  18
$$

WIZ051-052-058>065-066-070>072-311200-
SOUTHEAST WISCONSIN

CITY           SKY/WX    TMP DP  RH WIND       PRES   REMARKS
MILWAUKEE      PTCLDY    21  14  74 SW8       30.20F WCI  11
WAUKESHA       CLEAR     18  14  86 CALM      30.20F
MILWAUKEE/TIMM CLEAR     19  14  79 SW6       30.20F WCI  11
RACINE         PTCLDY    20  14  77 SW8       30.23F WCI  10
BURLINGTON     MOCLDY    17  15  90 S5        30.20F WCI  10
KENOSHA        CLEAR     20  15  81 SW6       30.21F WCI  12
FOND DU LAC    CLOUDY    23  15  71 SW8       30.16F WCI  14
SHEBOYGAN      CLOUDY    20  15  81 SW7       30.17F WCI  11
WEST BEND      MOCLDY    21  16  79 SW3       30.17F
JUNEAU         CLOUDY    20  16  83 S7        30.18F WCI  11
$$

LSZ147-162-311200-
LAKE SUPERIOR

STATION/POSITION TIME  TEMP    WIND        PRES    WAVE
                       AIR SEA DIR/SP/G            HT/PER
                 (UTC) (F)     (DEG/KT/KT) (MB)    (FT/S)
DEVILS ISLAND    1100   24     300/ 12/ 15 1021.2R
PORT WING        1000   21     190/  4/  5 1020.3S
SAXON HARBOR     1000   23     200/  5/  7 1019.6F
$$

LMZ867-665-643>646-311200-
LAKE MICHIGAN

STATION/POSITION TIME  TEMP    WIND        PRES    WAVE
                       AIR SEA DIR/SP/G            HT/PER
                 (UTC) (F)     (DEG/KT/KT) (MB)    (FT/S)
NORTHPORT PIER   1018   21     200/  4/ 10 1021.0F
SISTER BAY       1043   22     220/  8/ 10   N/A
KEWAUNEE LAKESHO 1000   22     220/  8/ 11 1021.0F
SHEBOYGAN LAKESH 1100   22     220/  7/  8 1023.3F
PORT WASHINGTON  1000   22     200/  3/  4 1024.0
MILWAUKEE LAKESH 1000   23     230/ 10/ 11   N/A
KENOSHA   LAKESH 1100   23     220/  5/  8 1023.4F
$$

TC  - TEMPERATURE IN CELSIUS
VSB - VISIBILITY IN STATUTE MILES
WCI - WIND CHILL INDEX
HX  - HEAT INDEX



USA.gov is the U.S. government's official web portal to all federal, state and local government web resources and services.